Stations météo

réclame
Mon MeteoGroup
Lyon/Bron, France (7480): Température de l'air & dewpoint: 16.01.2020 07:00:00 - 22.01.2020 07:00:00 (CET)Lyon/Bron, France (7480): Température de l'air 5cm: 16.01.2020 07:00:00 - 22.01.2020 07:00:00 (CET)Lyon/Bron, France (7480): Température de l'air -20cm: 16.01.2020 07:00:00 - 22.01.2020 07:00:00 (CET)Lyon/Bron, France (7480): Vitesse du vent & gusts: 16.01.2020 07:00:00 - 22.01.2020 07:00:00 (CET)Lyon/Bron, France (7480): Direction du vent: 16.01.2020 07:00:00 - 22.01.2020 07:00:00 (CET)Lyon/Bron, France (7480): reduced air pressure: 16.01.2020 07:00:00 - 22.01.2020 07:00:00 (CET)Lyon/Bron, France (7480): visibility: 16.01.2020 07:00:00 - 22.01.2020 07:00:00 (CET)Lyon/Bron, France (7480): Ensoleillement: 16.01.2020 07:00:00 - 22.01.2020 07:00:00 (CET)Lyon/Bron, France (7480): Quantités de précipitations: 16.01.2020 07:00:00 - 22.01.2020 07:00:00 (CET)
Date & Time tt [°C] td [°C] tt 5cm [°C] tt -20cm [°C] ff [km/h] ff [knt] fx [km/h] fx [knt] dd ppp [hPa] vv [km] sd [min] rr [mm]
22.01.2020 07:00:00 -2,9 -4,0 -5,1 4,5 0 0 4 2 N 1034,9 3,2 0 0,0
22.01.2020 06:00:00 -2,4 -3,2 -5,0 4,6 3 2 4 2 N 1035,1 3,1 0 0,0
22.01.2020 05:00:00 -1,9 -3,0 -4,4 4,7 3 1 5 3 E 1035,4 3,9 0 0,0
22.01.2020 04:00:00 -1,2 -2,5 -2,9 4,7 3 1 4 2 SE 1035,7 6 0 0,0
22.01.2020 03:00:00 -0,9 -2,2 -2,6 4,8 0 0 7 4 N 1036,1 5 0 0,0
22.01.2020 02:00:00 -1,2 -2,6 -2,8 4,9 2 1 5 3 E 1036,0 6 0 0,0
22.01.2020 01:00:00 -0,7 -2,3 -2,7 5,0 0 0 4 2 N 1036,3 6 0 0,0
22.01.2020 00:00:00 -0,5 -2,4 -2,5 5,0 3 1 6 3 SE 1037,0 7 0 0,0
21.01.2020 23:00:00 0,4 -2,0 -1,9 5,1 2 1 6 3 SE 1037,1 8 0 0,0
21.01.2020 22:00:00 0,0 -2,2 -2,6 5,1 3 1 5 3 SW 1037,5 8 0 0,0
21.01.2020 21:00:00 0,0 -2,9 -2,4 5,2 2 1 4 2 SSW 1037,4 12 0 0,0
21.01.2020 20:00:00 1,2 -2,7 -1,6 5,2 0 0 6 3 N 1037,4 14 0 0,0
21.01.2020 19:00:00 2,5 -2,6 -0,2 5,1 5 3 11 6 NNW 1036,8 16 0 0,0
21.01.2020 18:00:00 3,1 -2,2 1,1 5,1 8 4 12 6 NNE 1036,8 18 0 0,0
21.01.2020 17:00:00 4,4 -2,0 3,5 5,0 7 4 14 7 NE 1036,5 18 0 0,0
21.01.2020 16:00:00 5,3 -1,8 6,4 4,8 9 5 12 7 NNE 1037,0 18 0 0,0
21.01.2020 15:00:00 5,6 -2,3 8,4 4,7 6 4 12 6 N 1037,7 19 39 0,0
21.01.2020 14:00:00 5,9 -2,0 7,1 4,6 4 2 8 4 NNE 1038,6 16 31 0,0
21.01.2020 13:00:00 5,3 -1,6 7,5 4,6 3 2 8 4 SE 1039,4 15 55 0,0
21.01.2020 12:00:00 3,8 -2,0 5,5 4,6 2 1 8 4 SW 1040,4 15 29 0,0
21.01.2020 11:00:00 2,1 -2,2 1,2 4,7 3 2 10 6 NNW 1040,8 14 36 0,0
21.01.2020 10:00:00 0,7 -2,0 -2,4 4,8 6 4 9 5 N 1040,8 13 45 0,0
21.01.2020 09:00:00 -1,3 -2,7 -3,3 4,8 3 1 10 5 WNW 1040,7 10 0 0,0
21.01.2020 08:00:00 -0,7 -2,4 -2,6 4,9 7 4 11 6 N 1040,1 12 0 0,0
21.01.2020 07:00:00 -0,6 -2,7 -2,5 5,0 4 2 5 3 NE 1040,0 12 0 0,0
21.01.2020 06:00:00 -0,1 -2,2 -1,9 5,0 5 3 6 3 N 1039,4 15 0 0,0
21.01.2020 05:00:00 -0,3 -2,5 -2,0 5,1 3 1 5 3 SSE 1039,6 17 0 0,0
21.01.2020 04:00:00 -0,4 -2,6 -1,9 5,1 0 0 4 2 N 1039,4 18 0 0,0
21.01.2020 03:00:00 0,1 -2,8 -1,7 5,2 3 2 4 2 SE 1040,0 20 0 0,0
21.01.2020 02:00:00 0,9 -3,0 -1,1 5,3 3 2 7 4 NNW 1039,8 24 0 0,0
21.01.2020 01:00:00 1,5 -2,6 -0,1 5,4 0 0 10 6 N 1040,0 24 0 0,0
21.01.2020 00:00:00 1,3 -2,5 -0,7 5,4 0 0 9 5 N 1039,9 19 0 0,0
20.01.2020 23:00:00 1,1 -2,5 -1,0 5,5 2 1 8 4 SW 1039,5 16 0 0,0
20.01.2020 22:00:00 2,0 -2,9 -0,7 5,5 8 5 15 8 NW 1039,0 26 0 0,0
20.01.2020 21:00:00 2,5 -2,6 0,4 5,6 4 2 16 9 WSW 1039,3 28 0 0,0
20.01.2020 20:00:00 3,1 -2,4 1,0 5,5 10 5 17 9 NNW 1038,8 27 0 0,0
20.01.2020 19:00:00 4,3 -1,9 2,7 5,5 11 6 23 12 NNW 1038,9 31 0 0,0
20.01.2020 18:00:00 5,1 -1,6 3,7 5,4 13 7 22 12 NNW 1038,5 36 0 0,0
20.01.2020 17:00:00 6,4 -2,0 5,6 5,3 16 9 27 15 NNW 1038,4 46 47 0,0
20.01.2020 16:00:00 7,2 -2,8 8,7 5,1 16 9 25 13 NNW 1038,1 56 60 0,0
20.01.2020 15:00:00 7,1 -2,6 9,3 5,0 8 5 21 12 N 1038,3 48 60 0,0
20.01.2020 14:00:00 6,2 -3,2 8,6 4,9 16 8 23 13 NW 1038,6 56 60 0,0
20.01.2020 13:00:00 5,2 -1,9 8,7 4,9 10 6 21 12 NW 1039,2 34 56 0,0
20.01.2020 12:00:00 4,0 -1,8 8,2 5,0 9 5 19 10 NW 1039,6 34 60 0,0
20.01.2020 11:00:00 3,2 -1,9 1,7 5,0 11 6 17 9 NNW 1039,6 37 60 0,0
20.01.2020 10:00:00 1,4 -2,0 -0,6 5,1 8 4 16 9 NNW 1039,7 26 60 0,0
20.01.2020 09:00:00 -0,2 -2,4 -2,0 5,2 8 5 11 6 NW 1039,3 22 7 0,0
20.01.2020 08:00:00 -0,1 -2,6 -2,5 5,3 9 5 14 8 NNW 1038,7 22 0 0,0
20.01.2020 07:00:00 -0,1 -2,6 -2,4 5,4 5 3 18 10 NW 1038,1 25 0 0,0
20.01.2020 06:00:00 0,8 -2,1 -0,3 5,5 13 7 22 12 NNW 1037,7 27 0 0,0
20.01.2020 05:00:00 1,0 -1,9 -0,1 5,5 16 9 25 13 NNW 1037,4 26 0 0,0
20.01.2020 04:00:00 1,3 -1,9 0,3 5,6 13 7 26 14 NNW 1037,4 29 0 0,0
20.01.2020 03:00:00 1,6 -1,8 0,5 5,7 17 9 34 18 N 1037,2 31 0 0,0
20.01.2020 02:00:00 1,9 -1,7 0,9 5,8 18 10 35 19 N 1037,1 32 0 0,0
20.01.2020 01:00:00 2,0 -1,4 1,2 5,8 22 12 40 22 N 1036,9 33 0 0,0
20.01.2020 00:00:00 2,3 -1,3 1,3 5,9 24 13 44 24 N 1036,8 26 0 0,0
19.01.2020 23:00:00 2,5 -1,3 1,7 6,0 28 15 47 26 N 1036,3 37 0 0,0
19.01.2020 22:00:00 2,9 -1,3 2,0 6,0 27 14 46 25 N 1036,4 37 0 0,0
19.01.2020 21:00:00 3,1 -1,1 2,1 6,1 29 16 48 26 N 1036,2 35 0 0,0
19.01.2020 20:00:00 3,5 -1,1 2,6 6,1 26 14 53 28 N 1035,6 40 0 0,0
19.01.2020 19:00:00 4,1 -2,3 3,1 6,1 29 16 49 26 N 1035,1 56 0 0,0
19.01.2020 18:00:00 4,4 -2,0 3,5 6,1 33 18 55 30 N 1034,3 52 0 0,0
19.01.2020 17:00:00 5,3 -1,4 4,7 6,1 30 16 63 34 N 1033,6 39 48 0,0
19.01.2020 16:00:00 6,0 -1,2 7,1 6,0 37 20 61 33 N 1033,2 40 60 0,0
19.01.2020 15:00:00 6,0 -0,5 7,3 5,9 40 22 60 33 N 1032,7 35 60 0,0
19.01.2020 14:00:00 5,6 -0,5 7,5 5,9 36 19 61 33 N 1032,7 37 58 0,0
19.01.2020 13:00:00 5,0 -1,0 6,5 5,9 25 13 54 29 N 1033,0 39 46 0,0
19.01.2020 12:00:00 4,7 -1,3 5,5 5,9 31 17 49 26 N 1032,8 41 49 0,0
19.01.2020 11:00:00 3,3 -1,1 2,4 6,0 20 11 42 23 N 1032,5 20 30 0,0
19.01.2020 10:00:00 2,0 -0,9 1,3 6,1 24 13 38 21 N 1031,8 28 0 0,0
19.01.2020 09:00:00 1,5 -0,6 0,8 6,2 23 12 36 19 NNW 1031,4 29 0 0,0
19.01.2020 08:00:00 1,5 -0,6 0,9 6,2 25 14 37 20 NNW 1030,7 33 0 0,0
19.01.2020 07:00:00 1,8 -0,1 1,2 6,3 20 11 40 21 N 1030,2 34 0 0,0
19.01.2020 06:00:00 2,0 -0,1 1,3 6,4 19 11 32 18 N 1029,7 30 0 0,0
19.01.2020 05:00:00 2,4 -0,7 1,2 6,5 16 8 31 17 N 1029,3 46 0 0,0
19.01.2020 04:00:00 2,6 -1,4 1,7 6,6 19 10 31 17 N 1029,3 57 0 0,0
19.01.2020 03:00:00 2,6 -1,2 1,6 6,7 15 8 27 14 N 1029,1 58 0 0,0
19.01.2020 02:00:00 2,6 -0,7 1,5 6,8 11 6 23 12 N 1028,7 53 0 0,0
19.01.2020 01:00:00 2,8 -0,1 2,0 6,9 11 6 25 13 NNW 1028,1 41 0 0,0
19.01.2020 00:00:00 3,1 0,2 1,7 7,0 15 8 27 15 NNW 1027,8 34 0 0,0
18.01.2020 23:00:00 3,1 0,3 1,8 7,1 12 7 19 10 NNW 1027,1 31 0 0,0
18.01.2020 22:00:00 3,5 0,5 2,0 7,2 11 6 18 10 NNW 1027,2 41 0 0,0
18.01.2020 21:00:00 4,0 0,3 2,5 7,2 10 5 16 9 NNW 1027,6 42 0 0,0
18.01.2020 20:00:00 4,6 0,5 2,8 7,2 10 6 16 9 N 1027,5 49 0 0,0
18.01.2020 19:00:00 5,1 0,5 3,6 7,3 11 6 17 9 N 1027,4 39 0 0,0
18.01.2020 18:00:00 5,8 0,5 4,1 7,2 10 5 19 10 N 1027,3 25 0 0,0
18.01.2020 17:00:00 7,2 0,6 6,3 7,1 11 6 24 13 N 1027,3 59 34 0,0
18.01.2020 16:00:00 8,5 0,0 11,1 7,0 15 8 24 13 N 1027,5 60 60 0,0
18.01.2020 15:00:00 8,5 1,2 8,6 6,9 13 7 24 13 NNE 1027,8 57 38 0,0
18.01.2020 14:00:00 8,1 1,7 9,4 6,8 12 6 21 11 N 1028,4 58 34 0,0
18.01.2020 13:00:00 9,2 3,0 8,1 6,7 9 5 17 9 NNE 1028,9 19 47 0,0
18.01.2020 12:00:00 7,7 2,6 9,0 6,7 9 5 16 9 NNE 1030,2 36 46 0,0
18.01.2020 11:00:00 7,5 3,9 5,6 6,8 6 3 12 6 ENE 1030,6 20 60 0,0
18.01.2020 10:00:00 4,4 3,5 -0,1 6,9 6 4 9 5 WSW 1031,1 19 60 0,0
18.01.2020 09:00:00 1,6 1,2 -1,5 7,0 2 1 9 5 SSW 1031,2 7 19 0,0
18.01.2020 08:00:00 1,2 0,5 -1,0 7,1 4 2 9 5 ESE 1031,1 14 0 0,0
18.01.2020 07:00:00 1,5 0,6 -1,0 7,2 3 1 5 3 S 1030,6 16 0 0,0
18.01.2020 06:00:00 2,6 1,9 0,5 7,3 4 2 7 4 N 1030,6 23 0 0,0
18.01.2020 05:00:00 2,2 1,3 0,1 7,5 3 2 10 6 SE 1031,0 30 0 0,0
18.01.2020 04:00:00 2,6 1,6 -0,4 7,6 3 1 13 7 ENE 1030,9 53 0 0,0
18.01.2020 03:00:00 2,7 1,4 0,0 7,6 5 3 9 5 ENE 1030,9 40 0 0,0
18.01.2020 02:00:00 3,7 1,7 1,0 7,7 3 2 11 6 SSW 1030,6 54 0 0,0
18.01.2020 01:00:00 5,7 2,3 3,3 7,7 7 4 23 12 NNW 1030,0 60 0 0,0
18.01.2020 00:00:00 7,0 3,2 5,4 7,8 11 6 22 12 NW 1029,4 60 0 0,0
17.01.2020 23:00:00 7,7 3,7 5,9 7,9 13 7 26 14 WNW 1028,7 59 0 0,0
17.01.2020 22:00:00 7,2 4,8 5,5 7,8 9 5 16 9 W 1028,1 51 0 0,0
17.01.2020 21:00:00 6,9 5,7 5,7 7,9 0 0 9 5 N 1027,5 24 0 0,0
17.01.2020 20:00:00 7,2 5,8 6,2 7,9 4 2 7 4 SE 1026,6 27 0 0,0
17.01.2020 19:00:00 7,5 6,0 6,2 7,8 4 2 11 6 SSE 1025,7 47 0 0,0
17.01.2020 18:00:00 7,6 5,7 6,5 7,8 6 3 24 13 NNE 1024,2 60 0 0,2
17.01.2020 17:00:00 7,8 5,8 6,7 7,7 17 9 54 29 WNW 1024,0 14 0 2,7
17.01.2020 16:00:00 10,9 7,8 10,0 7,7 15 8 21 11 S 1021,9 58 2 0,0
17.01.2020 15:00:00 10,6 8,0 9,8 7,6 15 8 24 13 S 1021,7 40 0 0,0
17.01.2020 14:00:00 10,3 8,4 8,9 7,6 15 8 24 13 S 1022,1 41 0 0,2
17.01.2020 13:00:00 9,8 8,1 8,6 7,6 12 7 44 24 SW 1022,5 15 0 0,6
17.01.2020 12:00:00 9,6 7,9 8,4 7,5 21 12 38 21 S 1022,9 14 0 1,8
17.01.2020 11:00:00 10,0 7,2 8,3 7,5 23 13 43 23 S 1023,4 6 0 0,8
17.01.2020 10:00:00 11,4 5,5 10,6 7,5 25 14 57 31 S 1023,2 52 0 0,0
17.01.2020 09:00:00 11,4 5,0 10,4 7,5 29 16 56 30 S 1023,3 60 0 0,0
17.01.2020 08:00:00 11,2 4,9 9,9 7,5 36 19 72 39 S 1023,2 60 0 0,0
17.01.2020 07:00:00 11,0 4,2 9,5 7,5 37 20 66 35 S 1022,9 60 0 0,0
17.01.2020 06:00:00 11,0 4,2 9,8 7,5 36 20 64 35 S 1022,7 60 0 0,0
17.01.2020 05:00:00 11,0 4,4 9,7 7,5 34 19 62 34 S 1022,9 60 0 0,0
17.01.2020 04:00:00 10,8 5,3 9,5 7,6 27 15 47 26 S 1023,5 60 0 0,0
17.01.2020 03:00:00 11,3 5,4 9,8 7,6 32 17 72 39 S 1024,1 60 0 0,0
17.01.2020 02:00:00 10,8 4,9 9,5 7,6 21 11 41 22 SSE 1023,9 60 0 0,0
17.01.2020 01:00:00 11,0 5,3 10,0 7,7 22 12 46 25 SSE 1023,8 60 0 0,0
17.01.2020 00:00:00 11,2 5,7 9,9 7,7 23 12 56 30 SSE 1024,2 59 0 0,0
16.01.2020 23:00:00 11,0 5,5 9,1 7,7 21 11 38 20 S 1024,9 60 0 0,0
16.01.2020 22:00:00 10,7 5,4 8,8 7,7 17 9 32 17 S 1025,4 59 0 0,0
16.01.2020 21:00:00 11,0 5,9 9,0 7,7 21 11 37 20 S 1025,7 56 0 0,0
16.01.2020 20:00:00 10,7 5,9 9,1 7,7 16 9 31 17 S 1026,1 57 0 0,0
16.01.2020 19:00:00 10,9 5,2 9,7 7,6 16 9 34 18 SSE 1026,0 60 0 0,0
16.01.2020 18:00:00 11,7 4,9 10,4 7,5 25 14 46 25 S 1025,8 60 0 0,0
16.01.2020 17:00:00 12,6 4,3 11,6 7,4 28 15 50 27 S 1025,4 19 42 0,0
16.01.2020 16:00:00 13,6 5,5 14,5 7,3 26 14 54 29 S 1025,5 60 60 0,0
16.01.2020 15:00:00 13,8 5,2 14,9 7,1 32 18 53 29 SSE 1025,4 57 60 0,0
16.01.2020 14:00:00 13,6 5,2 14,7 7,0 29 15 48 26 SSE 1026,3 54 60 0,0
16.01.2020 13:00:00 13,3 5,4 14,8 7,0 29 16 46 25 S 1026,9 54 60 0,0
16.01.2020 12:00:00 12,0 5,4 14,7 7,0 7 4 14 8 S 1027,8 20 60 0,0
16.01.2020 11:00:00 10,0 4,8 6,5 7,1 4 2 10 5 SW 1028,6 31 60 0,0
16.01.2020 10:00:00 6,1 4,1 3,8 7,2 2 1 12 6 SSE 1028,9 26 60 0,0
16.01.2020 09:00:00 4,3 2,3 0,7 7,3 8 5 14 7 E 1028,8 33 0 0,0
16.01.2020 08:00:00 4,9 2,8 2,2 7,4 3 2 14 7 ESE 1028,6 18 0 0,0
16.01.2020 07:00:00 5,2 4,0 0,5 7,4 10 6 13 7 ESE 1028,2 38 0 0,0

tt = Température de l'air
td = dewpoint
tt 5cm = Température de l'air 5cm
tt -20cm = Température de l'air -20cm
ff = Vitesse du vent
fx = gusts
dd = Direction du vent
ppp = reduced air pressure
vv = visibility
sd = Ensoleillement
rr = Quantités de précipitations

stations d'obs. à proximité